sat.trackr.live / text

‹ back to catalog

STARLINK-30494

NORAD 57970 · 2023-151G

PAYLOAD ACTIVE UNKNOWN

§ Identity

Operator
Country
US
Launch date
2023-09-30
Launch site
AFETR
Launch vehicle
Mass (kg)
RCS (m²)

Purposes: comms

External: N2YO · Heavens-Above · Gunter

§ Orbital elements

Epoch: 2026-05-24T22:10:17.743008Z

Period
94.27 min
Inclination
43.0047°
Eccentricity
0.0001782
Mean motion
15.27576528 rev/d
Perigee alt
481.8 km
Apogee alt
484.3 km
Semi-major
6,861.2 km
B*
2.8202e-5
RAAN
120.0203°
Arg perigee
277.5724°
Mean anomaly
82.4925°
Rev number
14,911

§ Raw data

STARLINK-304941 57970U 23151G   26144.92381647  .00000514  00000+0  28202-4 0  99942 57970  43.0047 120.0203 0001782 277.5724  82.4925 15.27576528149112

JSON: /api/v1/satellites/57970 · /tle

For live sub-satellite position, see the globe view (requires WebGL).

§ Visibility from observer

Set your observer location to see the next 7 days of passes ≥ 10°. The values pass through the URL so the page stays shareable.

No JS? Fill the form by hand. The geolocation button needs JavaScript.